Tracking 19490 objects as of 23-Jan-2019
HD Live streaming from Space Station
objects crossing your sky now

MOLNIYA 1-29

Track MOLNIYA 1-29 now!
MOLNIYA 1-29 is classified as:


NORAD ID: 7780
Int'l Code: 1975-036A
Perigee: 293.4 km
Apogee: 40,076.1 km
Inclination: 62.2 °
Period: 717.8 minutes
Semi major axis: 26555 km
RCS: 18.4266 m2 (large)
Launch date: April 29, 1975
Source: Commonwealth of Independent States (former USSR) (CIS)
Launch site: PLESETSK MISSILE AND SPACE COMPLEX (PKMTR)
aabbcc
Your satellite tracking list
Your tracking list is empty




NASA's NSSDC Master Catalog

Two Line Element Set (TLE):
1  7780U 75036A   19021.06922797 +.00000017 +00000-0 +33714-3 0  9997
2  7780 062.2438 035.7489 7490406 282.7738 009.8118 02.00615711320704
Source of the keplerian elements: AFSPC